K4YY Weather Reports


time (UTC)temp
C
wind
direction
speed
KPH
gust
KPH
rain 1hr
cm
rain 24hr
cm
rain mn
cm
humidity
%
barometer
mb
20260506221518 32 203 3.2 11.3 0.00 0.00 0.00 50 1012.6
20260506220518 33 180 4.8 12.9 0.00 0.00 0.00 41 1012.5
20260506215518 33 180 4.8 17.7 0.00 0.00 0.00 41 1012.4
20260506214518 32 203 8.0 17.7 0.00 0.00 0.00 41 1012.4
20260506213519 32 203 8.0 17.7 0.00 0.00 0.00 41 1012.6
20260506212518 32 203 6.4 11.3 0.00 0.00 0.00 43 1012.6
20260506211518 32 203 4.8 11.3 0.00 0.00 0.00 43 1012.7
20260506210518 32 203 9.7 17.7 0.00 0.00 0.00 43 1012.7
20260506205518 32 203 9.7 16.1 0.00 0.00 0.00 45 1012.8
20260506204538 32 180 3.2 9.7 0.00 0.00 0.00 44 1012.9
20260506203518 32 203 9.7 17.7 0.00 0.00 0.00 43 1013.0
20260506202518 32 203 8.0 20.9 0.00 0.00 0.00 44 1013.0
20260506201518 32 225 8.0 12.9 0.00 0.00 0.00 43 1013.1
20260506200518 32 203 8.0 16.1 0.00 0.00 0.00 43 1013.2
20260506195538 32 203 8.0 17.7 0.00 0.00 0.00 43 1013.5
20260506194538 32 203 4.8 11.3 0.00 0.00 0.00 43 1013.6
20260506193518 32 203 8.0 16.1 0.00 0.00 0.00 44 1013.8
20260506192518 31 180 8.0 17.7 0.00 0.00 0.00 46 1014.0
20260506191518 31 225 6.4 14.5 0.00 0.00 0.00 49 1014.0
20260506190518 31 225 4.8 11.3 0.00 0.00 0.00 46 1014.2
20260506185538 31 203 9.7 19.3 0.00 0.00 0.00 49 1014.2
20260506184518 31 225 8.0 17.7 0.00 0.00 0.00 50 1014.4
20260506183538 30 203 9.7 19.3 0.00 0.00 0.00 50 1014.4
20260506182518 30 180 6.4 16.1 0.00 0.00 0.00 51 1014.5
20260506181518 30 203 8.0 16.1 0.00 0.00 0.00 52 1014.8
20260506180518 30 225 6.4 11.3 0.00 0.00 0.00 53 1014.9
20260506175518 30 203 6.4 12.9 0.00 0.00 0.00 55 1015.0
20260506174518 30 203 6.4 16.1 0.00 0.00 0.00 54 1015.1
20260506173518 29 203 6.4 16.1 0.00 0.00 0.00 55 1015.2
20260506172518 29 203 6.4 11.3 0.00 0.00 0.00 57 1015.4
20260506171518 29 225 8.0 14.5 0.00 0.00 0.00 57 1015.4
20260506170518 28 180 4.8 11.3 0.00 0.00 0.00 59 1015.6
20260506165518 28 203 9.7 16.1 0.00 0.00 0.00 57 1015.7
20260506164518 28 180 8.0 14.5 0.00 0.00 0.00 59 1015.9
20260506163538 28 203 6.4 11.3 0.00 0.00 0.00 61 1016.2
20260506162518 28 203 6.4 14.5 0.00 0.00 0.00 60 1016.1
20260506161518 27 203 4.8 12.9 0.00 0.00 0.00 60 1016.1
20260506160518 27 203 9.7 20.9 0.00 0.00 0.00 61 1016.3
20260506155518 27 203 9.7 19.3 0.00 0.00 0.00 62 1016.4
20260506154518 27 203 6.4 12.9 0.00 0.00 0.00 63 1016.4
20260506153518 26 203 11.3 19.3 0.00 0.00 0.00 63 1016.3
20260506152518 26 180 9.7 17.7 0.00 0.00 0.00 65 1016.4
20260506151518 26 203 9.7 17.7 0.00 0.00 0.00 65 1016.3
20260506150518 26 180 6.4 11.3 0.00 0.00 0.00 67 1016.2
20260506145538 25 203 8.0 17.7 0.00 0.00 0.00 67 1016.3
20260506144538 25 203 8.0 17.7 0.00 0.00 0.00 67 1016.1
20260506143518 25 203 9.7 17.7 0.00 0.00 0.00 68 1016.0
20260506142518 25 203 8.0 14.5 0.00 0.00 0.00 68 1016.0
20260506141518 25 180 8.0 16.1 0.00 0.00 0.00 69 1015.9
20260506140518 24 203 8.0 12.9 0.00 0.00 0.00 70 1016.1
20260506135518 24 203 6.4 11.3 0.00 0.00 0.00 71 1016.1
20260506134518 23 203 8.0 16.1 0.00 0.00 0.00 71 1016.2
20260506133518 23 203 6.4 14.5 0.00 0.00 0.00 72 1016.2
20260506132518 23 180 6.4 16.1 0.00 0.00 0.00 72 1016.1
20260506131518 23 180 6.4 12.9 0.00 0.00 0.00 72 1016.2
20260506130518 23 180 6.4 12.9 0.00 0.00 0.00 73 1016.0
20260506125618 22 203 8.0 12.9 0.00 0.00 0.00 73 1016.0
20260506124518 22 225 8.0 16.1 0.00 0.00 0.00 74 1015.8
20260506123518 22 225 6.4 12.9 0.00 0.00 0.00 75 1015.9
20260506122518 22 225 6.4 11.3 0.00 0.00 0.00 76 1015.9
20260506121518 21 203 4.8 8.0 0.00 0.00 0.00 77 1015.6
20260506120518 21 203 4.8 11.3 0.00 0.00 0.00 78 1015.5
20260506115518 20 203 3.2 6.4 0.00 0.00 0.00 80 1015.4
20260506114518 20 203 3.2 4.8 0.00 0.00 0.00 82 1015.2
20260506113518 19 203 1.6 4.8 0.00 0.00 0.00 82 1015.4
20260506112518 19 203 1.6 3.2 0.00 0.00 0.00 82 1015.3
20260506111518 18 0.0 1.6 0.00 0.00 0.00 82 1015.2
20260506110519 18 0.0 0.0 0.00 0.00 0.00 81 1014.9
20260506105539 18 0.0 0.0 0.00 0.00 0.00 81 1014.9
20260506104519 18 0.0 0.0 0.00 0.00 0.00 81 1015.1
20260506103519 18 0.0 0.0 0.00 0.00 0.00 81 1015.0
20260506102518 18 0.0 0.0 0.00 0.00 0.00 80 1014.8
20260506101518 18 0.0 0.0 0.00 0.00 0.00 80 1014.7
20260506100518 18 0.0 0.0 0.00 0.00 0.00 80 1014.7
20260506095539 19 0.0 0.0 0.00 0.00 0.00 81 1014.9
20260506094559 19 0.0 0.0 0.00 0.00 0.00 81 1014.9
20260506093538 18 0.0 0.0 0.00 0.00 0.00 80 1014.9
20260506092518 18 0.0 0.0 0.00 0.00 0.00 80 1014.7
20260506091519 18 0.0 0.0 0.00 0.00 0.00 79 1014.6
20260506090539 19 0.0 3.2 0.00 0.00 0.00 80 1014.2
20260506085538 18 0.0 3.2 0.00 0.00 0.00 80 1014.6
20260506084518 19 0.0 0.0 0.00 0.00 0.00 81 1014.6
20260506083519 18 0.0 0.0 0.00 0.00 0.00 80 1014.5
20260506082519 19 0.0 0.0 0.00 0.00 0.00 80 1014.4
20260506081518 19 0.0 0.0 0.00 0.00 0.00 80 1014.5
20260506080519 19 0.0 0.0 0.00 0.00 0.00 80 1014.6
20260506073519 19 0.0 0.0 0.00 0.00 0.00 79 1014.4
20260506072539 19 0.0 0.0 0.00 0.00 0.00 76 1014.2
20260506071519 19 0.0 0.0 0.00 0.00 0.00 75 1014.3
20260506070519 20 0.0 0.0 0.00 0.00 0.00 75 1014.6
20260506061519 20 0.0 0.0 0.00 0.00 0.00 71 1015.2
20260506060519 20 0.0 1.6 0.00 0.00 0.00 71 1015.2
20260506050519 20 0.0 0.0 0.00 0.00 0.00 71 1015.5
20260506044539 20 0.0 0.0 0.00 0.00 0.00 71 1015.6
20260506043519 20 0.0 0.0 0.00 0.00 0.00 71 1015.8
20260506042519 20 0.0 0.0 0.00 0.00 0.00 70 1015.7
20260506041519 20 0.0 0.0 0.00 0.00 0.00 70 1015.8
20260506040539 20 0.0 0.0 0.00 0.00 0.00 70 1015.8
20260506035518 20 0.0 0.0 0.00 0.00 0.00 69 1015.9
20260506034518 20 0.0 0.0 0.00 0.00 0.00 68 1015.9
20260506033518 20 0.0 0.0 0.00 0.00 0.00 68 1015.8
20260506032518 20 0.0 0.0 0.00 0.00 0.00 67 1015.9
20260506031518 21 0.0 0.0 0.00 0.00 0.00 67 1015.8
20260506030518 21 0.0 0.0 0.00 0.00 0.00 66 1015.7
20260506025519 21 0.0 0.0 0.00 0.00 0.00 66 1015.6
20260506024538 21 0.0 1.6 0.00 0.00 0.00 66 1015.6
20260506023518 21 0.0 3.2 0.00 0.00 0.00 66 1015.5
20260506022518 21 0.0 0.0 0.00 0.00 0.00 65 1015.4
20260506021539 21 0.0 0.0 0.00 0.00 0.00 65 1015.2
20260506020518 21 0.0 4.8 0.00 0.00 0.00 65 1015.0
20260506015518 21 0.0 3.2 0.00 0.00 0.00 65 1014.9
20260506014518 22 0.0 3.2 0.00 0.00 0.00 65 1014.7
20260506013518 22 0.0 1.6 0.00 0.00 0.00 64 1014.9
20260506012559 22 0.0 1.6 0.00 0.00 0.00 64 1014.9
20260506011518 22 180 1.6 6.4 0.00 0.00 0.00 63 1014.8
20260506010539 22 0.0 4.8 0.00 0.00 0.00 63 1014.7
20260506005519 22 113 1.6 6.4 0.00 0.00 0.00 62 1014.7
20260506004518 22 225 1.6 4.8 0.00 0.00 0.00 63 1014.7
20260506003619 22 158 1.6 3.2 0.00 0.00 0.00 62 1014.6
20260506002519 23 113 1.6 6.4 0.00 0.00 0.00 62 1014.5
20260506001519 23 225 1.6 8.0 0.00 0.00 0.00 61 1014.5
20260506000519 23 23 1.6 8.0 0.00 0.00 0.00 60 1014.2
20260505235542 23 338 1.6 4.8 0.00 0.00 0.00 59 1014.2
20260505234519 24 135 1.6 8.0 0.00 0.00 0.00 59 1014.3
20260505233519 25 45 1.6 6.4 0.00 0.00 0.00 57 1014.3
20260505232518 25 180 3.2 9.7 0.00 0.00 0.00 56 1014.2
20260505231519 25 135 1.6 6.4 0.00 0.00 0.00 54 1014.1
20260505230539 26 225 3.2 6.4 0.00 0.00 0.00 50 1014.2
20260505225518 26 0 1.6 12.9 0.00 0.00 0.00 51 1014.1
20260505224518 26 68 1.6 4.8 0.00 0.00 0.00 49 1014.1
20260505223539 26 270 1.6 4.8 0.00 0.00 0.00 50 1014.2
20260505222519 26 68 1.6 8.0 0.00 0.00 0.00 53 1014.2